Montana Department of Transportation

Main Content

Accidents and Incidents Report

Hourly Weather Roundup

ASUS45 KTFX 230710
RWRMT 
MONTANA REGIONAL WEATHER ROUNDUP
NATIONAL WEATHER SERVICE GREAT FALLS MT
1200 AM MST THU NOV 23 2017

NOTE: "FAIR" INDICATES FEW OR NO CLOUDS BELOW 12000 FEET WITH NO
SIGNIFICANT WEATHER AND/OR OBSTRUCTIONS TO VISIBILITY.

MTZ001.007-043-230800-
WEST OF THE DIVIDE
  
CITY           SKY/WX    TMP DP  RH WIND       PRES   REMARKS
KALISPELL      CLOUDY    47  47 100 W5        30.00F                  
MISSOULA       FOG       39  39 100 CALM      30.09F VSB.1/4          
BUTTE          FAIR      35  30  82 S8        30.18F WCI  29          
MULLAN PASS    FAIR      42  40  92 S8G17     30.07F FOG              
ANACONDA         N/A     48  37  66 E12       30.14F                  
DEER LODGE       N/A     50  39  66 S14G21    30.12S                  
EUREKA           N/A     54  48  82 MISG      29.94F                  
HAMILTON         N/A     52  39  62 S18       30.12F                  
LIBBY            N/A    N/A N/A N/A CALM      29.97F                  
RONAN            N/A     51  44  77 SE2       30.07F                  
--------------------------------

MTZ008-052.055-230800-
SOUTHWEST MONTANA
  
CITY           SKY/WX    TMP DP  RH WIND       PRES   REMARKS
BOZEMAN        FAIR      42  34  73 SE7       30.15F                  
DILLON         FAIR      41  34  76 S12       30.21S                  
W YELLOWSTONE  CLOUDY    43  41  93 SW14      30.33F                  
ENNIS          CLOUDY    46  37  71 S18G24    30.24F                  
--------------------------------

MTZ009-010-012-014-046-048-049-054-230800-
EAST SLOPES AND CENTRAL MONTANA
  
CITY           SKY/WX    TMP DP  RH WIND       PRES   REMARKS
CUT BANK       FAIR      55  42  61 SW7       29.89R                  
GREAT FALLS    FAIR      55  39  54 S12       29.98S                  
MALMSTROM AFB  FAIR      53  41  63 S16       29.97F                  
HELENA         FAIR      43  39  86 SW6       30.07F                  
BOWMANS CRNR   FAIR      51  39  63 S15       29.98F                  
CHOTEAU          N/A     61  39  44 SE8G30    29.94F                  
FAIRFIELD      FAIR      56  39  52 SE5G20    29.94F                  
POWER          FAIR      51  40  65 SE8       29.94F                  
RAYNESFORD     FAIR      57  39  50 SW9G18    30.01F                  
ULM            MOCLDY    56  40  56 SW15      29.98F                  
--------------------------------

MTZ011-013-016-021-045-047-050-051-230800-
NORTH CENTRAL MONTANA
  
CITY           SKY/WX    TMP DP  RH WIND       PRES   REMARKS
HAVRE          FAIR      50  42  74 SW24      29.86S                  
LEWISTOWN      FAIR      55  40  56 SW20      30.02F                  
N BAR RANCH    FAIR      59  37  44 W10G21    30.02F                  
CHINOOK          N/A     61  43  51 SW21G29   29.82F                  
DENTON         FAIR      55  40  58 SW16      29.96F                  
GEYSER         FAIR      54  39  57 SW13      30.00F                  
GRASS RANGE    FAIR      61  38  43 W32G44    29.93F                  
STANFORD       FAIR      52  38  60 SW13      30.03F                  
WINIFRED       MOCLDY    56  40  56 W21G28    29.95F                  
--------------------------------

MTZ017.020-022.027-061-062-230800-
NORTHEAST MONTANA
  
CITY           SKY/WX    TMP DP  RH WIND       PRES   REMARKS
GLASGOW        FAIR      34  33  96 S8        29.86F WCI  27          
GLENDIVE       FAIR      38  34  85 S7        29.92F                  
JORDAN           N/A     39  34  82 CALM      29.91F                  
SIDNEY         FAIR      24  23  96 CALM      29.90F                  
WOLF POINT     FAIR      27  24  89 CALM      29.88F                  
MALTA          CLEAR     30  30 100 E5        29.84S                  
PLENTYWOOD       N/A     28  25  86 CALM      29.85F                  
POPLAR           N/A     28  25  86 N5        29.88F                  
--------------------------------

MTZ028.42-056.058-230800-
SOUTHCENTRAL AND SOUTHEAST MONTANA
  
CITY           SKY/WX    TMP DP  RH WIND       PRES   REMARKS
BAKER          FAIR      47  41  80 SW15      29.97F                  
BILLINGS       CLOUDY    54  39  57 SW17      30.06F                  
LIVINGSTON     FAIR      53  39  59 SW24G47   30.10S                  
MILES CITY     FAIR      45  40  82 SW7       29.97F                  
EKALAKA          N/A     51  38  61 SW7       29.99                   
FORSYTH          N/A     55  39  54 SW6       29.97F                  
HARLOWTON      MOCLDY    49  38  66 NW13      30.07F                  
LAUREL           N/A     55  39  54 SW16G25   30.07S                  
ROUNDUP          N/A     52  38  58 S14       29.94F                  
--------------------------------

REGIONAL REPORTS...DAKOTAS
  
CITY           SKY/WX    TMP DP  RH WIND       PRES   REMARKS
WILLISTON      FAIR      24  21  88 S3        29.90F                  
MINOT          FAIR      25  21  85 SW7       29.91F WCI  17          
DICKINSON      FAIR      31  30  96 S7        29.91F WCI  24          
BEACH          FAIR      39  37  93 SW13      29.96F WCI  32          
CROSBY         FAIR      23  23 100 S13       29.88S WCI  11          
TIOGA          FAIR      19  19 100 SW5       29.91S                  
WATFORD CITY   FAIR      23  23 100 CALM      29.89F                  
BISMARCK       FAIR      23  19  85 CALM      29.97F                  
GRAND FORKS    FAIR      20  18  92 W5        29.94F                  
FARGO          FAIR      20  15  81 W5        29.96R                  
BUFFALO SD       N/A     43  38  82 W9        29.93F                  
RAPID CITY     FAIR      42  35  76 NW9       30.06F                  
--------------------------------

REGIONAL REPORTS...WYOMING/IDAHO/WASHINGTON
  
CITY           SKY/WX    TMP DP  RH WIND       PRES   REMARKS
GILLETTE       FAIR      47  37  68 SW8       30.11F                  
SHERIDAN       FAIR      42  35  76 SW3       30.08F                  
BUFFALO WY     FAIR      45  31  58 VRB3      30.14F                  
CODY           FAIR      58  37  45 W15G28    30.20F                  
YELLOWSTONE LA   N/A     36  36 100 CALM      30.39F                  
IDAHO FALLS    FOG       34  34 100 N3        30.33S VSB 1/4          
SALMON         CLOUDY    39  38  96 CALM      30.28S FOG              
BOISE          FAIR      51  47  86 S7        30.17F                  
SPOKANE        CLOUDY    54  50  86 S10       29.95F                  
--------------------------------

REGIONAL REPORTS...ALBERTA
  
CITY           SKY/WX    TMP DP  RH WIND       PRES   REMARKS
EDMONTON       PTCLDY    23  16  74 E6        29.49F WCI  16          
CALGARY        PTCLDY    34  27  75 VRB2      29.62F                  
LETHBRIDGE     CLEAR     57  39  51 SW18G25   29.76S                  
MEDICINE HAT   CLEAR     48  39  71 SW29G44   29.71F                  
--------------------------------

REGIONAL REPORTS...SASKATCHEWAN
  
CITY           SKY/WX    TMP DP  RH WIND       PRES   REMARKS
SWIFT CURRENT  CLEAR     39  36  87 SW14      29.72F WCI  31          
REGINA         MOCLDY    18  16  93 SE12      29.80F WCI   5          
SASKATOON      PTCLDY    14  12  92 E7        29.76F WCI   4          
--------------------------------